Location: Castelbiague
(43.0361°N, 0.9246°E)
Time: 20:31:36
(UTC+00:00)

Meteor 1-4 Rocket - Pass Details

Date: 20 October 2021
Orbit: 447 x 496 km, 81.2° (Epoch: 04 December)

Event Time Altitude Azimuth Distance (km) Brightness Sun altitude
Rises 05:05:04 0° 5° (N) 2,462 6.2 -13.7°
Reaches altitude 10° 05:07:34 10° 24° (NNE) 1,588 5.5 -13.2°
Maximum altitude 05:10:08 19° 72° (ENE) 1,136 5.4 -12.7°
Drops below altitude 10° 05:12:42 10° 120° (ESE) 1,591 6.2 -12.3°
Sets 05:15:12 0° 138° (SE) 2,467 6.9 -11.8°
